This is the latest recevied weather packets stored in our database for station/object K1AWR. If no packets are shown the sender has not sent any weather packets the latest 10 day(s).
| Time | Temp. | Humidity | Pressure | Rain* | Wind** | Luminosity | Snow |
|---|---|---|---|---|---|---|---|
| 1777851678 | 10.56° C | 41% | 1010 hPa | 0 mm | - | 5 W/m² | - |
| 1777851375 | 11.67° C | 37% | 1009.8 hPa | 0 mm | - | 8 W/m² | - |
| 1777851070 | 11.67° C | 36% | 1009.9 hPa | 0 mm | - | 10 W/m² | - |
| 1777850767 | 12.22° C | 34% | 1009.8 hPa | 0 mm | - | 12 W/m² | - |
| 1777850465 | 12.22° C | 33% | 1009.7 hPa | 0 mm | - | 14 W/m² | - |
| 1777850163 | 12.22° C | 33% | 1009.9 hPa | 0 mm | - | 16 W/m² | - |
| 1777849859 | 12.78° C | 32% | 1009.5 hPa | 0 mm | - | 18 W/m² | - |
| 1777849555 | 12.78° C | 36% | 1009.5 hPa | 0 mm | - | 20 W/m² | - |
| 1777849253 | 12.78° C | 32% | 1009.5 hPa | 0 mm | - | 21 W/m² | - |
| 1777848950 | 12.78° C | 34% | 1009.7 hPa | 0 mm | - | 25 W/m² | - |
| 1777848645 | 12.78° C | 34% | 1009.7 hPa | 0 mm | - | 24 W/m² | - |
| 1777848343 | 12.78° C | 36% | 1009.8 hPa | 0 mm | - | 27 W/m² | - |
| 1777848040 | 12.78° C | 34% | 1009.7 hPa | 0 mm | - | 28 W/m² | - |
| 1777847738 | 12.78° C | 33% | 1009.6 hPa | 0 mm | - | 29 W/m² | - |
| 1777847433 | 12.78° C | 33% | 1009.5 hPa | 0 mm | - | 32 W/m² | - |
| 1777847132 | 12.78° C | 33% | 1009.5 hPa | 0 mm | - | 32 W/m² | - |
| 1777846830 | 12.78° C | 35% | 1009.6 hPa | 0 mm | - | 34 W/m² | - |
| 1777846528 | 12.78° C | 32% | 1009.6 hPa | 0 mm | - | 41 W/m² | - |
| 1777846225 | 12.78° C | 33% | 1009.5 hPa | 0 mm | - | 55 W/m² | - |
| 1777845921 | 12.78° C | 34% | 1009.6 hPa | 0 mm | - | 41 W/m² | - |
| 1777845617 | 12.78° C | 34% | 1009.7 hPa | 0 mm | - | 43 W/m² | - |
| 1777845315 | 12.78° C | 34% | 1009.6 hPa | 0 mm | - | 36 W/m² | - |
| 1777845012 | 12.78° C | 36% | 1009.7 hPa | 0 mm | - | 62 W/m² | - |
| 1777844710 | 13.33° C | 35% | 1009.6 hPa | 0 mm | - | 70 W/m² | - |
| 1777844406 | 13.33° C | 33% | 1009.6 hPa | 0 mm | - | 97 W/m² | - |
* Rain latest hour (hover to see other rain measurements)
** Current wind speed in m/s (hover to see current wind gust speed)